• In Russia
  • List of Countries
  • For 7 days
  • Water Temperature
  • Satellite Maps
  • Weather Map
  • Weather Widgets
  • user-avatar
    Login

    Hourly Weather Tirana

    Today, 10 December, Saturday

    Time Temperature Precipitation Wind Pressure Humidity
    00:00 +5°C° 0 mm 2 mps 762 mmHg 71%
    01:00 +5°C° 0 mm 2 mps 762 mmHg 65%
    02:00 +5°C° 0 mm 2 mps 762 mmHg 64%
    03:00 +5°C° 0 mm 2 mps 762 mmHg 63%
    04:00 +5°C° 0 mm 2 mps 761 mmHg 62%
    05:00 +5°C° 0 mm 2 mps 761 mmHg 61%
    06:00 +5°C° 0 mm 2 mps 761 mmHg 59%
    07:00 +5°C° 0 mm 2 mps 761 mmHg 58%
    08:00 +8°C° 0 mm 2 mps 761 mmHg 51%
    09:00 +10°C° 0 mm 2 mps 761 mmHg 45%
    10:00 +14°C° 0 mm 2 mps 761 mmHg 38%
    11:00 +15°C° 0 mm 2 mps 761 mmHg 38%
    12:00 +16°C° 0 mm 2 mps 761 mmHg 39%
    13:00 +16°C° 0 mm 2 mps 761 mmHg 40%
    14:00 +14°C° 0 mm 2 mps 761 mmHg 49%
    15:00 +10°C° 0 mm 2 mps 760 mmHg 58%
    16:00 +8°C° 0 mm 2 mps 760 mmHg 67%
    17:00 +8°C° 0 mm 2 mps 760 mmHg 67%
    18:00 +7°C° 0 mm 2 mps 760 mmHg 67%
    19:00 +6°C° 0 mm 2 mps 760 mmHg 67%
    20:00 +6°C° 0 mm 2 mps 760 mmHg 69%
    21:00 +7°C° 0 mm 1 mps 760 mmHg 71%
    22:00 +7°C° 0 mm 1 mps 760 mmHg 73%
    23:00 +7°C° 0 mm 1 mps 760 mmHg 73%

    Tomorrow, 11 December, Sunday

    Time Temperature Precipitation Wind Pressure Humidity
    00:00 +7°C° 0 mm 1 mps 760 mmHg 74%
    01:00 +6°C° 0 mm 1 mps 759 mmHg 74%
    02:00 +6°C° 0 mm 1 mps 759 mmHg 75%
    03:00 +6°C° 0 mm 1 mps 759 mmHg 75%
    04:00 +6°C° 0 mm 1 mps 759 mmHg 76%
    05:00 +6°C° 0 mm 1 mps 758 mmHg 75%
    06:00 +6°C° 0 mm 1 mps 758 mmHg 75%
    07:00 +6°C° 0 mm 1 mps 758 mmHg 74%
    08:00 +9°C° 0 mm 1 mps 758 mmHg 62%
    09:00 +12°C° 0 mm 1 mps 758 mmHg 51%
    10:00 +15°C° 0 mm 1 mps 758 mmHg 40%
    11:00 +15°C° 0 mm 1 mps 758 mmHg 41%
    12:00 +15°C° 0 mm 1 mps 757 mmHg 43%
    13:00 +16°C° 0 mm 1 mps 757 mmHg 45%
    14:00 +13°C° 0 mm 1 mps 756 mmHg 55%
    15:00 +11°C° 0 mm 1 mps 756 mmHg 66%
    16:00 +9°C° 0 mm 1 mps 756 mmHg 76%
    17:00 +8°C° 0 mm 1 mps 756 mmHg 78%
    18:00 +8°C° 0 mm 1 mps 756 mmHg 81%
    19:00 +7°C° 0 mm 1 mps 756 mmHg 83%
    20:00 +7°C° 0 mm 1 mps 755 mmHg 84%
    21:00 +7°C° 0 mm 1 mps 755 mmHg 85%
    22:00 +7°C° 0 mm 1 mps 755 mmHg 85%
    23:00 +6°C° 0 mm 1 mps 755 mmHg 86%

    Day after tomorrow, 12 December, Monday

    Time Temperature Precipitation Wind Pressure Humidity
    00:00 +6°C° 0 mm 1 mps 755 mmHg 86%
    01:00 +6°C° 0 mm 1 mps 755 mmHg 86%
    02:00 +6°C° 0 mm 1 mps 755 mmHg 87%
    03:00 +6°C° 0 mm 1 mps 754 mmHg 87%
    04:00 +6°C° 0 mm 1 mps 754 mmHg 88%
    05:00 +6°C° 0 mm 1 mps 754 mmHg 87%
    06:00 +6°C° 0 mm 1 mps 754 mmHg 87%
    07:00 +6°C° 0 mm 1 mps 755 mmHg 87%
    08:00 +8°C° 0 mm 1 mps 755 mmHg 77%
    09:00 +10°C° 0 mm 1 mps 755 mmHg 67%
    10:00 +13°C° 0 mm 1 mps 755 mmHg 58%
    11:00 +13°C° 0 mm 1 mps 754 mmHg 57%
    12:00 +14°C° 0 mm 1 mps 754 mmHg 55%
    13:00 +14°C° 0 mm 1 mps 754 mmHg 54%
    14:00 +13°C° 0 mm 1 mps 754 mmHg 61%
    15:00 +10°C° 0 mm 2 mps 754 mmHg 68%
    16:00 +9°C° 0 mm 2 mps 754 mmHg 76%
    17:00 +8°C° 0 mm 3 mps 755 mmHg 78%
    18:00 +7°C° 0 mm 3 mps 755 mmHg 80%
    19:00 +5°C° 0 mm 4 mps 756 mmHg 82%
    20:00 +5°C° 0 mm 4 mps 756 mmHg 80%
    21:00 +5°C° 0 mm 4 mps 756 mmHg 79%
    22:00 +5°C° 0 mm 4 mps 757 mmHg 77%
    23:00 +4°C° 0 mm 4 mps 757 mmHg 76%

    13 December, Tuesday

    Time Temperature Precipitation Wind Pressure Humidity
    00:00 +4°C° 0 mm 4 mps 757 mmHg 76%
    01:00 +4°C° 0 mm 4 mps 757 mmHg 75%
    02:00 +4°C° 0 mm 4 mps 757 mmHg 75%
    03:00 +4°C° 0 mm 4 mps 757 mmHg 75%
    04:00 +3°C° 0 mm 4 mps 757 mmHg 75%
    05:00 +3°C° 0 mm 4 mps 758 mmHg 75%
    06:00 +3°C° 0 mm 4 mps 758 mmHg 74%
    07:00 +3°C° 0 mm 4 mps 759 mmHg 74%
    08:00 +5°C° 0 mm 4 mps 759 mmHg 67%
    09:00 +7°C° 0 mm 4 mps 759 mmHg 60%
    10:00 +10°C° 0 mm 4 mps 760 mmHg 53%
    11:00 +11°C° 0 mm 4 mps 760 mmHg 49%
    12:00 +11°C° 0 mm 4 mps 759 mmHg 46%
    13:00 +12°C° 0 mm 3 mps 759 mmHg 43%
    14:00 +11°C° 0 mm 3 mps 759 mmHg 49%
    15:00 +9°C° 0 mm 3 mps 760 mmHg 55%
    16:00 +7°C° 0 mm 3 mps 760 mmHg 61%
    17:00 +7°C° 0 mm 3 mps 760 mmHg 63%
    18:00 +5°C° 0 mm 3 mps 761 mmHg 65%
    19:00 +5°C° 0 mm 3 mps 761 mmHg 66%
    20:00 +4°C° 0 mm 3 mps 761 mmHg 68%
    21:00 +4°C° 0 mm 3 mps 761 mmHg 70%
    22:00 +4°C° 0 mm 3 mps 762 mmHg 71%
    23:00 +3°C° 0 mm 3 mps 762 mmHg 72%

    14 December, Wednesday

    Time Temperature Precipitation Wind Pressure Humidity
    00:00 +3°C° 0 mm 3 mps 761 mmHg 72%
    01:00 +3°C° 0 mm 3 mps 761 mmHg 73%
    02:00 +3°C° 0 mm 3 mps 761 mmHg 72%
    03:00 +4°C° 0 mm 2 mps 761 mmHg 70%
    04:00 +4°C° 0 mm 2 mps 761 mmHg 69%
    05:00 +4°C° 0 mm 2 mps 761 mmHg 67%
    06:00 +4°C° 0 mm 2 mps 761 mmHg 65%
    07:00 +4°C° 0 mm 2 mps 761 mmHg 62%
    08:00 +6°C° 0 mm 2 mps 761 mmHg 56%
    09:00 +8°C° 0 mm 2 mps 761 mmHg 49%
    10:00 +10°C° 0 mm 2 mps 761 mmHg 43%
    11:00 +12°C° 0 mm 1 mps 761 mmHg 44%
    12:00 +12°C° 0 mm 1 mps 760 mmHg 45%
    13:00 +13°C° 0 mm 1 mps 760 mmHg 46%
    14:00 +11°C° 0 mm 1 mps 760 mmHg 55%
    15:00 +9°C° 0 mm 1 mps 760 mmHg 64%
    16:00 +7°C° 0 mm 1 mps 760 mmHg 73%
    17:00 +7°C° 0 mm 1 mps 760 mmHg 75%
    18:00 +6°C° 0 mm 1 mps 760 mmHg 77%
    19:00 +6°C° 0 mm 1 mps 760 mmHg 79%
    20:00 +6°C° 0 mm 1 mps 760 mmHg 80%
    21:00 +5°C° 0 mm 1 mps 760 mmHg 82%
    22:00 +5°C° 0 mm 1 mps 759 mmHg 84%
    23:00 +5°C° 0 mm 1 mps 759 mmHg 84%

    15 December, Thursday

    Time Temperature Precipitation Wind Pressure Humidity
    00:00 +5°C° 0 mm 1 mps 759 mmHg 85%
    01:00 +5°C° 0 mm 1 mps 759 mmHg 86%
    02:00 +5°C° 0 mm 1 mps 759 mmHg 87%
    03:00 +5°C° 0 mm 1 mps 759 mmHg 88%
    04:00 +5°C° 0 mm 1 mps 759 mmHg 88%
    05:00 +4°C° 0 mm 1 mps 759 mmHg 88%
    06:00 +4°C° 0 mm 1 mps 758 mmHg 88%
    07:00 +4°C° 0 mm 1 mps 758 mmHg 88%
    08:00 +7°C° 0 mm 1 mps 758 mmHg 79%
    09:00 +9°C° 0 mm 1 mps 758 mmHg 69%
    10:00 +11°C° 0 mm 1 mps 759 mmHg 59%
    11:00 +11°C° 0 mm 1 mps 758 mmHg 58%
    12:00 +12°C° 0 mm 1 mps 758 mmHg 58%
    13:00 +12°C° 0 mm 1 mps 757 mmHg 57%
    14:00 +11°C° 0 mm 1 mps 757 mmHg 65%
    15:00 +9°C° 0 mm 1 mps 757 mmHg 74%
    16:00 +6°C° 0 mm 0 mps 757 mmHg 83%
    17:00 +7°C° 0 mm 1 mps 757 mmHg 85%
    18:00 +6°C° 0 mm 1 mps 757 mmHg 87%
    19:00 +6°C° 0 mm 1 mps 757 mmHg 89%
    20:00 +5°C° 0 mm 1 mps 757 mmHg 89%
    21:00 +5°C° 0 mm 1 mps 758 mmHg 89%
    22:00 +5°C° 0 mm 1 mps 758 mmHg 89%
    23:00 +5°C° 0 mm 1 mps 758 mmHg 89%
    Show more